Pompano Beach, FL

2:42 AM EST on December 18, 2017 (GMT -0500)
Pompano Beach

Weather History for KPMP - April, 2011

Change the Weather History Date:

Friday, April 29, 2011

  Actual Average Record
Temperature  
Mean Temperature 80 °F -  
Max Temperature 90 °F 85 °F 93 °F (1971)
Min Temperature 71 °F 65 °F 51 °F (1992)
Cooling Degree Days 14    
Growing Degree Days 30 (Base 50)    
Moisture  
Dew Point 72 °F    
Average Humidity 84    
Maximum Humidity 97    
Minimum Humidity 49    
Precipitation  
Precipitation 1.70 in - - ()
Sea Level Pressure  
Sea Level Pressure 29.96 in    
Wind  
Wind Speed 6 mph (South)    
Max Wind Speed 16 mph    
Max Gust Speed 22 mph    
Visibility 7 miles    
Events Fog , Rain , Thunderstorm    
Averages and records for this station are not official NWS values.
T = Trace of Precipitation, MM = Missing Value Source: NWS Daily Summary

Daily Weather History Graph

Daily Weather History Graph

Search for Another Location

Airport or City:

Trip Planner

Search our weather history database for the weather conditions in past years. The results will help you decide how hot, cold, wet, or windy it might be!

Date:

Astronomy

Apr. 29, 2011 Rise Set
Actual Time 6:44 AM EDT 7:51 PM EDT
Civil Twilight 6:20 AM EDT 8:15 PM EDT
Nautical Twilight 5:51 AM EDT 8:44 PM EDT
Astronomical Twilight 5:22 AM EDT 9:13 PM EDT
Moon 4:21 AM EDT (4/29) 4:58 PM EDT (4/29)
Length of Visible Light 13h 54m
Length of Day
13h 06m
Waning Crescent, 12% of the Moon is Illuminated
Apr 29
Waning Crescent
May 3
New
May 10
First Quarter
May 17
Full
May 24
Last Quarter

Hourly Weather History & Observations

Time (EDT) Temp. Heat Index Dew Point Humidity Pressure Visibility Wind Dir Wind Speed Gust Speed Precip Events Conditions
12:53 AM 80.1 °F 84.5 °F 73.9 °F 81% 30.03 in 10.0 mi South 5.8 mph - N/A   Mostly Cloudy
1:53 AM 79.0 °F - 73.9 °F 84% 30.01 in 10.0 mi South 6.9 mph - N/A   Mostly Cloudy
2:53 AM 78.1 °F - 73.0 °F 84% 29.99 in 10.0 mi South 3.5 mph - N/A   Scattered Clouds
5:53 AM 77.0 °F - 73.0 °F 88% 29.98 in 10.0 mi Calm Calm - N/A   Partly Cloudy
6:53 AM 77.0 °F - 73.0 °F 88% 29.99 in 10.0 mi Calm Calm - N/A   Clear
7:53 AM 78.1 °F - 73.0 °F 84% 29.99 in 10.0 mi SSW 6.9 mph - N/A   Clear
8:53 AM 82.0 °F 86.7 °F 72.0 °F 71% 29.99 in 10.0 mi South 6.9 mph - N/A   Scattered Clouds
9:53 AM 84.9 °F 90.1 °F 71.1 °F 63% 29.99 in 10.0 mi SW 8.1 mph - N/A   Clear
10:53 AM 87.1 °F 91.3 °F 69.1 °F 55% 30.00 in 10.0 mi WSW 8.1 mph - N/A   Partly Cloudy
11:53 AM 88.0 °F 90.7 °F 66.9 °F 49% 29.99 in 10.0 mi SSW 5.8 mph - N/A   Partly Cloudy
12:53 PM 87.1 °F 94.5 °F 73.0 °F 63% 29.96 in 10.0 mi SSE 12.7 mph - N/A   Mostly Cloudy
1:53 PM 84.0 °F 90.2 °F 73.0 °F 69% 29.96 in 10.0 mi SSE 15.0 mph - N/A   Mostly Cloudy
2:53 PM 82.9 °F 88.8 °F 73.0 °F 72% 29.94 in 10.0 mi SE 12.7 mph - 0.00 in   Mostly Cloudy
3:36 PM 80.6 °F 85.4 °F 73.4 °F 79% 29.93 in 1.2 mi Calm Calm - 0.17 in Rain Heavy Rain
3:39 PM 78.8 °F - 71.6 °F 78% 29.92 in 0.8 mi Calm Calm - 0.24 in Rain Heavy Rain
3:45 PM 78.8 °F - 73.4 °F 83% 29.91 in 10.0 mi SE 11.5 mph - 0.25 in Rain Light Rain
3:53 PM 80.1 °F 84.5 °F 73.9 °F 81% 29.91 in 10.0 mi SSE 13.8 mph - 0.25 in Rain Light Rain
4:18 PM 78.8 °F - 73.4 °F 83% 29.91 in 3.0 mi SSW 13.8 mph 21.9 mph 0.09 in Rain , Thunderstorm Thunderstorms and Rain
4:29 PM 73.4 °F - 68.0 °F 83% 29.93 in 2.0 mi WSW 10.4 mph - 0.24 in Rain , Thunderstorm Thunderstorms and Rain
4:43 PM 73.4 °F - 69.8 °F 88% 29.93 in 1.2 mi WSW 4.6 mph - 0.47 in Rain , Thunderstorm Thunderstorms and Rain
4:53 PM 72.0 °F - 70.0 °F 93% 29.95 in 1.0 mi WNW 9.2 mph - 0.69 in Rain , Thunderstorm Thunderstorms and Rain
5:04 PM 71.6 °F - 69.8 °F 94% 29.95 in 1.0 mi NNE 10.4 mph - 0.27 in Rain , Thunderstorm Thunderstorms and Rain
5:22 PM 71.6 °F - 69.8 °F 94% 29.96 in 0.8 mi Calm Calm - 0.55 in Rain Heavy Rain
5:31 PM 71.6 °F - 69.8 °F 94% 29.96 in 0.5 mi Calm Calm - 0.74 in Fog , Rain Heavy Rain
5:36 PM 71.6 °F - 69.8 °F 94% 29.95 in 1.0 mi NNE 5.8 mph - 0.75 in Rain Rain
5:39 PM 71.6 °F - 69.8 °F 94% 29.95 in 2.0 mi North 6.9 mph - 0.75 in Rain Light Rain
5:43 PM 71.6 °F - 69.8 °F 94% 29.94 in 7.0 mi NNW 4.6 mph - 0.75 in Rain Light Rain
5:53 PM 72.0 °F - 71.1 °F 97% 29.95 in 8.0 mi North 9.2 mph - 0.75 in Rain Light Rain
6:53 PM 73.0 °F - 71.1 °F 93% 29.97 in 10.0 mi Calm Calm - 0.01 in   Unknown
7:53 PM 73.9 °F - 72.0 °F 93% 29.98 in 10.0 mi NNW 3.5 mph - 0.00 in Rain Light Rain
8:53 PM 75.9 °F - 73.0 °F 91% 29.96 in 9.0 mi North 12.7 mph 20.7 mph 0.00 in   Partly Cloudy
9:15 PM 75.2 °F - 73.4 °F 94% 29.98 in 10.0 mi NNE 4.6 mph - N/A Thunderstorm Scattered Clouds
9:30 PM 75.2 °F - 73.4 °F 94% 29.98 in 10.0 mi NE 4.6 mph - N/A   Scattered Clouds
9:53 PM 75.9 °F - 73.0 °F 91% 29.99 in 10.0 mi NE 16.1 mph 19.6 mph N/A   Mostly Cloudy
10:53 PM 75.9 °F - 73.0 °F 91% 29.98 in 10.0 mi NE 6.9 mph - 0.00 in   Partly Cloudy
11:53 PM 77.0 °F - 73.0 °F 88% 30.00 in 10.0 mi ESE 6.9 mph - N/A   Mostly Cloudy